Content
SEND FEEDBACK

Daily
Averages
Monthly
Summary
United Kingdom

LONDON, ENGLAND


Home > Europe > United Kingdom > England
Elevation: 203 feet     Latitude: 51 09N     Longitude: 000 11W

WEATHER
 
SELECT A DAY
Number of Records: 292,972;   Date Range: 7/1/96 - 7/29/14
 
SHARE

PRINT THIS DATA

[ ← Previous Day ]
WEATHER ALMANAC - DECEMBER 7, 2013
[ Next Day → ]
[ °C ]   °F
Weather ElementAverageHighLow
Temperature45.1 °F48.2 °F (1:20 pm)41 °F (1:50 am)
Dewpoint42 °F42.8 °F (9:20 am)39.2 °F (1:50 am)
Humidity88.5 %100 % (2:20 am)76 % (2:50 pm)
Barometer30.32 in30.36 in (12:50 am)30.27 in (4:20 pm)
Wind Speed6.4 mph10.4 mph (2:50 pm)
Weather ElementAverage
Visibility5.9 mi
Wind DirectionSSW (206.8 °)

Weather ElementTotal
Precipitation---
Heating Degree Days20.4 (Base 65)
Averaged from 47 records on December 7, 2013
WEATHER CONDITIONS BREAKOUT
WIND DIRECTION BREAKOUT
WEATHER BY HOUR - DECEMBER 7, 2013
[ °C ]   °F
Local TimeTemperatureDewpointHumidityBarometerVisibilityWind DirectionWind SpeedGust SpeedPrecipitationEventsConditions
12:50 AM42.8 °F41.0 °F93 %30.36 in4.3 miSW (230°)5.8 mph
1:20 AM42.8 °F41.0 °F93 %30.36 in4.3 miSW (230°)4.6 mph
1:50 AM41.0 °F39.2 °F93 %30.36 in3.1 miCalmHaze
2:20 AM41.0 °F41.0 °F100 %30.36 in3.7 miVariable2.3 mphMostly Cloudy
2:50 AM42.8 °F41.0 °F93 %30.36 in4.3 miCalmMostly Cloudy
3:20 AM42.8 °F41.0 °F93 %30.33 in5.6 miSW (230°)4.6 mphMostly Cloudy
3:50 AM44.6 °F41.0 °F87 %30.33 in6.2 miWSW (250°)6.9 mphMostly Cloudy
4:20 AM42.8 °F41.0 °F93 %30.33 in4.3 miSW (220°)4.6 mphMostly Cloudy
4:50 AM42.8 °F41.0 °F93 %30.33 in5.6 miSW (220°)8.1 mphMostly Cloudy
5:20 AM42.8 °F41.0 °F93 %30.33 in6.2 miSW (220°)6.9 mphMostly Cloudy
5:50 AM42.8 °F41.0 °F93 %30.33 in6.2 miSW (220°)4.6 mphMostly Cloudy
6:20 AM42.8 °F41.0 °F93 %30.33 in6.2 miVariable2.3 mphMostly Cloudy
6:50 AM44.6 °F41.0 °F87 %30.33 in6.2 miWest (260°)5.8 mphMostly Cloudy
7:20 AM44.6 °F41.0 °F87 %30.33 in6.2 miVariable3.5 mphMostly Cloudy
7:50 AM44.6 °F41.0 °F87 %30.33 in6.2 miSW (230°)6.9 mphMostly Cloudy
8:20 AM44.6 °F41.0 °F87 %30.33 in6.2 miSW (220°)8.1 mphMostly Cloudy
8:50 AM44.6 °F41.0 °F87 %30.33 in6.2 miWSW (240°)5.8 mphMostly Cloudy
9:20 AM44.6 °F42.8 °F93 %30.33 in6.2 miWSW (240°)5.8 mphMostly Cloudy
9:50 AM44.6 °F42.8 °F93 %30.36 in6.2 miSW (230°)6.9 mphMostly Cloudy
10:20 AM46.4 °F42.8 °F87 %30.36 in6.2 miSW (230°)6.9 mphMostly Cloudy
10:50 AM46.4 °F42.8 °F87 %30.36 in6.2 miSW (230°)8.1 mphMostly Cloudy
11:20 AM46.4 °F42.8 °F87 %30.36 in6.2 miSW (220°)8.1 mphMostly Cloudy
11:50 AM46.4 °F42.8 °F87 %30.33 in6.2 miSW (230°)6.9 mphMostly Cloudy
12:20 PM46.4 °F42.8 °F87 %30.33 in6.2 miSW (230°)8.1 mphMostly Cloudy
12:50 PM46.4 °F42.8 °F87 %30.33 in6.2 miWSW (240°)8.1 mphMostly Cloudy
1:20 PM48.2 °F42.8 °F82 %30.30 in6.2 miWSW (240°)8.1 mphMostly Cloudy
1:50 PM48.2 °F42.8 °F82 %30.30 in6.2 miWSW (240°)6.9 mphMostly Cloudy
2:20 PM48.2 °F42.8 °F82 %30.30 in6.2 miWSW (250°)8.1 mphMostly Cloudy
2:50 PM48.2 °F41.0 °F76 %30.30 in6.2 miWSW (250°)10.4 mphMostly Cloudy
3:20 PM46.4 °F41.0 °F81 %30.30 in6.2 miWSW (250°)8.1 mphMostly Cloudy
3:50 PM46.4 °F41.0 °F81 %30.30 in6.2 miWSW (250°)8.1 mphMostly Cloudy
4:20 PM46.4 °F42.8 °F87 %30.27 in6.2 miWSW (240°)4.6 mphMostly Cloudy
4:50 PM46.4 °F42.8 °F87 %30.27 in6.2 miSW (230°)5.8 mphMostly Cloudy
5:20 PM46.4 °F42.8 °F87 %30.30 in6.2 miSW (230°)6.9 mphMostly Cloudy
5:50 PM46.4 °F42.8 °F87 %30.30 in6.2 miSW (230°)6.9 mphMostly Cloudy
6:20 PM46.4 °F42.8 °F87 %30.30 in6.2 miSW (220°)6.9 mphMostly Cloudy
6:50 PM46.4 °F42.8 °F87 %30.30 in6.2 miSW (220°)6.9 mphMostly Cloudy
7:20 PM46.4 °F42.8 °F87 %30.30 in6.2 miSW (220°)9.2 mphRainLight Rain
7:50 PM46.4 °F42.8 °F87 %30.30 in4.3 miSW (220°)5.8 mphRainLight Rain
8:20 PM44.6 °F42.8 °F93 %30.30 in6.2 miSSW (210°)6.9 mphMostly Cloudy
8:50 PM46.4 °F42.8 °F87 %30.30 in6.2 miSW (220°)8.1 mphMostly Cloudy
9:20 PM46.4 °F42.8 °F87 %30.30 in6.2 miSW (230°)8.1 mphMostly Cloudy
9:50 PM44.6 °F42.8 °F93 %30.30 in6.2 miSW (230°)6.9 mphMostly Cloudy
10:20 PM46.4 °F42.8 °F87 %30.30 in6.2 miSW (230°)6.9 mphMostly Cloudy
10:50 PM44.6 °F42.8 °F93 %30.30 in6.2 miSW (230°)6.9 mphMostly Cloudy
11:20 PM44.6 °F42.8 °F93 %30.30 in6.2 miSW (230°)5.8 mphMostly Cloudy
11:50 PM44.6 °F41.0 °F87 %30.30 in6.2 miSW (230°)6.9 mphMostly Cloudy
Hourly data recorded from EGKK, located miles away from London, England







STORIES FROM OUR PARTNERS